Time,TemperatureF,DewpointF,PressureIn,WindDirection,WindDirectionDegrees,WindSpeedMPH,WindSpeedGustMPH,Humidity,HourlyPrecipIn,Conditions,Clouds,dailyrainin,SoftwareType,DateUTC
2013-01-11 01:00:00,44.0,-99.9,-100.00,SSE,163,4.0,-999.0,-999,-99.99,,,-99.99,,2013-01-11 08:00:00,
2013-01-11 01:53:00,44.0,-99.9,-100.00,SSE,163,4.0,-999.0,-999,-99.99,,,-99.99,,2013-01-11 08:53:00,
2013-01-11 02:00:00,41.0,-99.9,-100.00,South,177,6.0,-999.0,-999,-99.99,,,-99.99,,2013-01-11 09:00:00,
2013-01-11 02:53:00,41.0,-99.9,-100.00,South,177,6.0,-999.0,-999,-99.99,,,-99.99,,2013-01-11 09:53:00,
2013-01-11 03:00:00,41.0,-99.9,-100.00,SE,144,2.0,-999.0,-999,-99.99,,,-99.99,,2013-01-11 10:00:00,
2013-01-11 03:53:00,41.0,-99.9,-100.00,SE,144,2.0,-999.0,-999,-99.99,,,-99.99,,2013-01-11 10:53:00,
2013-01-11 04:00:00,42.0,-99.9,-100.00,South,178,3.0,-999.0,-999,-99.99,,,-99.99,,2013-01-11 11:00:00,
2013-01-11 04:53:00,42.0,-99.9,-100.00,South,178,3.0,-999.0,-999,-99.99,,,-99.99,,2013-01-11 11:53:00,
2013-01-11 05:00:00,41.0,-99.9,-100.00,South,185,4.0,-999.0,-999,-99.99,,,-99.99,,2013-01-11 12:00:00,
2013-01-11 05:53:00,41.0,-99.9,-100.00,South,185,4.0,-999.0,-999,-99.99,,,-99.99,,2013-01-11 12:53:00,
2013-01-11 06:00:00,38.0,-99.9,-100.00,SSE,154,4.0,-999.0,-999,-99.99,,,-99.99,,2013-01-11 13:00:00,
2013-01-11 06:53:00,38.0,-99.9,-100.00,SSE,154,4.0,-999.0,-999,-99.99,,,-99.99,,2013-01-11 13:53:00,
2013-01-11 07:00:00,36.0,-99.9,-100.00,ESE,120,5.0,-999.0,-999,-99.99,,,-99.99,,2013-01-11 14:00:00,
2013-01-11 07:53:00,36.0,-99.9,-100.00,ESE,120,5.0,-999.0,-999,-99.99,,,-99.99,,2013-01-11 14:53:00,
2013-01-11 08:00:00,36.0,-99.9,-100.00,NW,315,3.0,-999.0,-999,-99.99,,,-99.99,,2013-01-11 15:00:00,
2013-01-11 08:53:00,36.0,-99.9,-100.00,NW,315,3.0,-999.0,-999,-99.99,,,-99.99,,2013-01-11 15:53:00,
2013-01-11 09:00:00,39.0,-99.9,-100.00,WNW,286,4.0,-999.0,-999,-99.99,,,-99.99,,2013-01-11 16:00:00,
2013-01-11 09:53:00,39.0,-99.9,-100.00,WNW,286,4.0,-999.0,-999,-99.99,,,-99.99,,2013-01-11 16:53:00,
2013-01-11 10:00:00,44.0,-99.9,-100.00,NNW,344,5.0,-999.0,-999,-99.99,,,-99.99,,2013-01-11 17:00:00,
2013-01-11 10:53:00,44.0,-99.9,-100.00,NNW,344,5.0,-999.0,-999,-99.99,,,-99.99,,2013-01-11 17:53:00,
2013-01-11 11:00:00,37.0,-99.9,-100.00,NW,322,8.0,-999.0,-999,-99.99,,,-99.99,,2013-01-11 18:00:00,
2013-01-11 11:53:00,37.0,-99.9,-100.00,NW,322,8.0,-999.0,-999,-99.99,,,-99.99,,2013-01-11 18:53:00,
2013-01-11 12:00:00,32.0,-99.9,-100.00,SSE,148,4.0,-999.0,-999,-99.99,,,-99.99,,2013-01-11 19:00:00,
2013-01-11 12:54:00,32.0,-99.9,-100.00,SSE,148,4.0,-999.0,-999,-99.99,,,-99.99,,2013-01-11 19:54:00,
2013-01-11 13:00:00,33.0,-99.9,-100.00,ENE,63,7.0,-999.0,-999,-99.99,,,-99.99,,2013-01-11 20:00:00,
2013-01-11 13:53:00,33.0,-99.9,-100.00,ENE,63,7.0,-999.0,-999,-99.99,,,-99.99,,2013-01-11 20:53:00,
2013-01-11 14:00:00,29.0,-99.9,-100.00,ENE,65,7.0,-999.0,-999,-99.99,,,-99.99,,2013-01-11 21:00:00,
2013-01-11 14:53:00,29.0,-99.9,-100.00,ENE,65,7.0,-999.0,-999,-99.99,,,-99.99,,2013-01-11 21:53:00,
2013-01-11 15:00:00,27.0,-99.9,-100.00,ENE,59,8.0,-999.0,-999,-99.99,,,-99.99,,2013-01-11 22:00:00,
2013-01-11 15:53:00,27.0,-99.9,-100.00,ENE,59,8.0,-999.0,-999,-99.99,,,-99.99,,2013-01-11 22:53:00,
2013-01-11 16:00:00,23.0,-99.9,-100.00,ENE,59,7.0,-999.0,-999,-99.99,,,-99.99,,2013-01-11 23:00:00,
2013-01-11 16:54:00,23.0,-99.9,-100.00,ENE,59,7.0,-999.0,-999,-99.99,,,-99.99,,2013-01-11 23:54:00,
2013-01-11 17:00:00,21.0,-99.9,-100.00,East,85,4.0,-999.0,-999,-99.99,,,-99.99,,2013-01-12 00:00:00,
2013-01-11 17:53:00,21.0,-99.9,-100.00,East,85,4.0,-999.0,-999,-99.99,,,-99.99,,2013-01-12 00:53:00,
2013-01-11 18:00:00,20.0,-99.9,-100.00,ENE,59,3.0,-999.0,-999,-99.99,,,-99.99,,2013-01-12 01:00:00,
2013-01-11 18:53:00,20.0,-99.9,-100.00,ENE,59,3.0,-999.0,-999,-99.99,,,-99.99,,2013-01-12 01:53:00,
2013-01-11 19:00:00,20.0,-99.9,-100.00,East,89,3.0,-999.0,-999,-99.99,,,-99.99,,2013-01-12 02:00:00,
2013-01-11 19:53:00,20.0,-99.9,-100.00,East,89,3.0,-999.0,-999,-99.99,,,-99.99,,2013-01-12 02:53:00,
2013-01-11 20:00:00,18.0,-99.9,-100.00,East,89,3.0,-999.0,-999,-99.99,,,-99.99,,2013-01-12 03:00:00,
2013-01-11 20:53:00,18.0,-99.9,-100.00,East,89,3.0,-999.0,-999,-99.99,,,-99.99,,2013-01-12 03:53:00,
2013-01-11 21:00:00,18.0,-99.9,-100.00,ENE,76,3.0,-999.0,-999,-99.99,,,-99.99,,2013-01-12 04:00:00,
2013-01-11 21:53:00,18.0,-99.9,-100.00,ENE,76,3.0,-999.0,-999,-99.99,,,-99.99,,2013-01-12 04:53:00,
2013-01-11 22:00:00,18.0,-99.9,-100.00,ENE,74,2.0,-999.0,-999,-99.99,,,-99.99,,2013-01-12 05:00:00,
2013-01-11 22:53:00,18.0,-99.9,-100.00,ENE,74,2.0,-999.0,-999,-99.99,,,-99.99,,2013-01-12 05:53:00,
2013-01-11 23:00:00,21.0,-99.9,-100.00,South,173,3.0,-999.0,-999,-99.99,,,-99.99,,2013-01-12 06:00:00,
2013-01-11 23:53:00,21.0,-99.9,-100.00,South,173,3.0,-999.0,-999,-99.99,,,-99.99,,2013-01-12 06:53:00,